Ithaca, NY

5:28 PM EDT on August 18, 2017 (GMT -0400)
Tompkins County

Weather History for KITH - July, 2014

Change the Weather History Date:

Tuesday, July 8, 2014

  Actual Average Record
Temperature  
Mean Temperature 74 °F -  
Max Temperature 84 °F 79 °F 101 °F (1936)
Min Temperature 66 °F 56 °F 43 °F (1969)
Cooling Degree Days 10    
Growing Degree Days 24 (Base 50)    
Moisture  
Dew Point 67 °F    
Average Humidity 78    
Maximum Humidity 96    
Minimum Humidity 57    
Precipitation  
Precipitation 0.57 in - - ()
Sea Level Pressure  
Sea Level Pressure 29.70 in    
Wind  
Wind Speed 10 mph (SSW)    
Max Wind Speed 28 mph    
Max Gust Speed 47 mph    
Visibility 9 miles    
Events Rain , Thunderstorm    
Averages and records for this station are not official NWS values.
T = Trace of Precipitation, MM = Missing Value Source: NWS Daily Summary

Daily Weather History Graph

Daily Weather History Graph

Search for Another Location

Airport or City:

Trip Planner

Search our weather history database for the weather conditions in past years. The results will help you decide how hot, cold, wet, or windy it might be!

Date:

Astronomy

Jul. 08, 2014 Rise Set
Actual Time 5:36 AM EDT 8:44 PM EDT
Civil Twilight 5:02 AM EDT 9:19 PM EDT
Nautical Twilight 4:18 AM EDT 10:03 PM EDT
Astronomical Twilight 3:25 AM EDT 10:55 PM EDT
Moon 4:47 PM EDT (7/8) 2:10 AM EDT (7/8)
Length of Visible Light 16h 16m
Length of Day
15h 08m
Waxing Gibbous, 81% of the Moon is Illuminated
Jul 8
Waxing Gibbous
Jul 12
Full
Jul 18
Last Quarter
Jul 26
New
Aug 3
First Quarter

Hourly Weather History & Observations

Time (EDT) Temp. Heat Index Dew Point Humidity Pressure Visibility Wind Dir Wind Speed Gust Speed Precip Events Conditions
1:56 AM 70.0 °F - 66.9 °F 90% 29.76 in 10.0 mi South 6.9 mph - N/A   Clear
2:56 AM 70.9 °F - 66.9 °F 87% 29.76 in 10.0 mi South 8.1 mph - N/A   Overcast
3:10 AM 71.6 °F - 66.2 °F 83% 29.78 in 10.0 mi South 9.2 mph - N/A   Overcast
3:56 AM 70.0 °F - 65.8 °F 87% 29.75 in 10.0 mi South 5.8 mph - N/A   Clear
4:56 AM 68.0 °F - 65.8 °F 93% 29.71 in 10.0 mi SE 3.5 mph - N/A   Clear
5:56 AM 66.9 °F - 65.8 °F 96% 29.74 in 8.0 mi SSE 5.8 mph - N/A   Clear
6:34 AM 69.8 °F - 66.2 °F 88% 29.78 in 9.0 mi South 6.9 mph - N/A   Clear
6:56 AM 70.0 °F - 65.8 °F 87% 29.76 in 10.0 mi South 5.8 mph - N/A   Clear
7:56 AM 72.9 °F - 66.9 °F 82% 29.78 in 10.0 mi SSW 6.9 mph - N/A   Clear
8:56 AM 75.9 °F - 66.9 °F 74% 29.78 in 10.0 mi SW 10.4 mph - N/A   Clear
9:15 AM 77.0 °F - 66.2 °F 69% 29.79 in 10.0 mi SSW 6.9 mph - N/A   Clear
9:56 AM 79.0 °F - 68.0 °F 69% 29.76 in 10.0 mi SSW 8.1 mph - N/A   Clear
10:56 AM 81.0 °F 83.8 °F 68.0 °F 65% 29.74 in 10.0 mi SSW 10.4 mph - N/A   Partly Cloudy
11:56 AM 79.9 °F - 68.9 °F 69% 29.74 in 10.0 mi SSW 6.9 mph - N/A   Overcast
12:56 PM 81.0 °F 84.1 °F 68.9 °F 67% 29.71 in 10.0 mi South 8.1 mph - N/A   Mostly Cloudy
1:56 PM 83.8 °F 86.5 °F 66.9 °F 57% 29.70 in 10.0 mi SW 13.8 mph 19.6 mph N/A   Mostly Cloudy
2:56 PM 83.8 °F 87.5 °F 68.9 °F 61% 29.66 in 10.0 mi South 12.7 mph 18.4 mph N/A   Scattered Clouds
3:56 PM 82.9 °F 86.3 °F 68.9 °F 62% 29.60 in 10.0 mi South 13.8 mph 20.7 mph N/A   Scattered Clouds
4:56 PM 83.8 °F 88.1 °F 70.0 °F 63% 29.57 in 10.0 mi SSW 13.8 mph 23.0 mph N/A   Scattered Clouds
5:56 PM 82.9 °F 85.8 °F 68.0 °F 60% 29.57 in 10.0 mi SSW 16.1 mph 24.2 mph N/A   Mostly Cloudy
6:14 PM 82.4 °F 84.6 °F 66.2 °F 58% 29.61 in 10.0 mi SW 19.6 mph 25.3 mph N/A Thunderstorm Thunderstorm
6:27 PM 77.0 °F - 69.8 °F 78% 29.63 in 7.0 mi West 27.6 mph 47.2 mph 0.00 in Rain , Thunderstorm Light Thunderstorms and Rain
6:35 PM 71.6 °F - 68.0 °F 88% 29.65 in 1.8 mi WSW 25.3 mph 40.3 mph 0.12 in Rain , Thunderstorm Heavy Thunderstorms and Rain
6:40 PM 69.8 °F - 66.2 °F 88% 29.63 in 2.0 mi SW 27.6 mph 40.3 mph 0.27 in Rain , Thunderstorm Heavy Thunderstorms and Rain
6:56 PM 66.9 °F - 64.9 °F 93% 29.62 in 1.5 mi SSW 23.0 mph 39.1 mph 0.56 in Rain , Thunderstorm Heavy Thunderstorms and Rain
7:38 PM 69.8 °F - 64.4 °F 83% 29.65 in 10.0 mi SSW 6.9 mph - 0.01 in   Scattered Clouds
7:56 PM 70.9 °F - 65.8 °F 84% 29.64 in 10.0 mi SSW 5.8 mph - 0.01 in   Mostly Cloudy
8:56 PM 70.9 °F - 65.8 °F 84% 29.67 in 10.0 mi WSW 4.6 mph - N/A   Clear
9:56 PM 66.9 °F - 64.9 °F 93% - - North - - N/A   Unknown
10:56 PM - - - N/A% - - North - - N/A   Unknown
11:56 PM - - - N/A% - - North - - N/A   Unknown